2019-003T05:11:00.041,   1, 180,   1,   600,   4,          0,     43.110,  99284.098,    91.866,   -23.416,     1.799,   296.105, 2, 5.486E-04, -1.00,   2,  2.096E-03,  3.800E-05,  5.842E-14,  6.185E-15,  1.740E+02,  1.841E+01, 255
2019-003T05:21:00.048,   1, 180,   1,   600,   4,          0,     43.110,  99284.098,    91.889,   -23.412,     1.799,   290.059, 2, 5.486E-04, -1.00,   2,  2.129E-03,  3.872E-05,  1.733E-14,  6.151E-15,  5.080E+01,  1.803E+01, 255
2019-003T05:31:00.055,   1, 180,   1,   600,   4,          0,     43.110,  99284.098,    91.911,   -23.409,     1.799,   284.013, 2, 5.486E-04, -1.00,   2,  2.060E-03,  3.867E-05,  5.531E-15,  6.109E-15,  1.676E+01,  1.851E+01, 255
2019-003T06:41:00.104,   1, 180,   1,   600,   4,          0,     43.110,  99284.098,    92.065,   -23.385,     1.798,   241.690, 2, 5.486E-04, -1.00,   2,  2.044E-03,  3.781E-05,  2.821E-14,  6.165E-15,  8.614E+01,  1.883E+01, 255
2019-003T06:51:00.110,   1, 180,   1,   600,   4,          0,     43.110,  99284.098,    92.087,   -23.382,     1.798,   235.643, 2, 5.486E-04, -1.00,   2,  1.924E-03,  3.737E-05,  5.914E-15,  6.149E-15,  1.919E+01,  1.995E+01, 255
2019-003T07:01:00.117,   1, 180,   1,   600,   4,          0,     43.110,  99284.098,    92.109,   -23.378,     1.798,   229.597, 2, 5.486E-04, -1.00,   2,  2.050E-03,  3.794E-05,  4.165E-14,  6.220E-15,  1.268E+02,  1.894E+01, 255
2019-003T07:21:00.131,   1, 180,   1,   600,   4,          0,     43.110,  99284.098,    92.153,   -23.372,     1.798,   217.505, 2, 5.486E-04, -1.00,   2,  1.916E-03,  3.695E-05,  2.114E-14,  6.160E-15,  6.889E+01,  2.007E+01, 255
2019-003T07:31:00.138,   1, 180,   1,   600,   4,          0,     43.110,  99284.098,    92.175,   -23.368,     1.798,   211.459, 2, 5.486E-04, -1.00,   2,  1.889E-03,  3.660E-05,  5.322E-14,  6.294E-15,  1.758E+02,  2.079E+01, 255
2019-003T07:41:00.145,   1, 180,   1,   600,   4,          0,     43.110,  99284.098,    92.197,   -23.365,     1.798,   205.413, 2, 5.486E-04, -1.00,   2,  2.134E-03,  3.813E-05,  3.472E-14,  6.114E-15,  1.015E+02,  1.788E+01, 255
2019-003T07:51:00.152,   1, 180,   1,   600,   4,          0,     43.110,  99284.098,    92.219,   -23.361,     1.798,   199.367, 2, 5.486E-04, -1.00,   2,  1.868E-03,  3.637E-05,  3.128E-14,  6.222E-15,  1.045E+02,  2.079E+01, 255
2019-003T08:01:00.159,   1, 180,   1,   600,   4,          0,     43.110,  99284.098,    92.241,   -23.358,     1.797,   193.320, 2, 5.486E-04, -1.00,   2,  1.931E-03,  3.678E-05,  5.540E-14,  6.214E-15,  1.790E+02,  2.008E+01, 255
2019-003T08:11:00.166,   1, 180,   1,   600,   4,          0,     43.110,  99284.098,    92.263,   -23.355,     1.797,   187.274, 2, 5.486E-04, -1.00,   2,  1.811E-03,  3.576E-05,  7.316E-14,  6.340E-15,  2.522E+02,  2.185E+01, 255
2019-003T08:21:00.172,   1, 180,   1,   600,   4,          0,     43.110,  99284.098,    92.285,   -23.351,     1.797,   181.228, 2, 5.486E-04, -1.00,   2,  1.768E-03,  3.637E-05,  4.803E-14,  6.399E-15,  1.695E+02,  2.259E+01, 255
2019-003T08:31:00.179,   1, 180,   1,   600,   4,          0,     43.110,  99284.098,    92.307,   -23.348,     1.797,   175.182, 2, 5.486E-04, -1.00,   2,  1.910E-03,  3.706E-05,  2.880E-14,  6.250E-15,  9.410E+01,  2.042E+01, 255
2019-003T08:41:00.186,   1, 180,   1,   600,   4,          0,     43.110,  99284.098,    92.329,   -23.345,     1.797,   169.136, 2, 5.486E-04, -1.00,   2,  2.001E-03,  3.725E-05,  7.671E-14,  6.229E-15,  2.392E+02,  1.943E+01, 255
2019-003T08:51:00.193,   1, 180,   1,   600,   4,          0,     43.110,  99284.098,    92.351,   -23.341,     1.797,   163.090, 2, 5.486E-04, -1.00,   2,  2.005E-03,  3.796E-05,  1.586E-14,  6.143E-15,  4.937E+01,  1.912E+01, 255
2019-003T09:01:00.200,   1, 180,   1,   600,   4,          0,     43.110,  99284.098,    92.373,   -23.338,     1.797,   157.044, 2, 5.486E-04, -1.00,   2,  1.955E-03,  3.720E-05,  8.993E-14,  6.475E-15,  2.871E+02,  2.067E+01, 255
2019-003T09:11:00.207,   1, 180,   1,   600,   4,          0,     43.110,  99284.098,    92.394,   -23.334,     1.797,   150.997, 2, 5.486E-04, -1.00,   2,  2.091E-03,  3.811E-05,  8.064E-14,  6.337E-15,  2.407E+02,  1.892E+01, 255
2019-003T09:21:00.214,   1, 180,   1,   600,   4,          0,     43.110,  99284.098,    92.416,   -23.331,     1.797,   144.951, 2, 5.486E-04, -1.00,   2,  1.950E-03,  3.748E-05,  6.932E-14,  6.412E-15,  2.219E+02,  2.053E+01, 255
2019-003T09:31:00.221,   1, 180,   1,   600,   4,          0,     43.110,  99284.098,    92.438,   -23.328,     1.797,   138.905, 2, 5.486E-04, -1.00,   2,  2.020E-03,  3.823E-05,  3.857E-14,  6.290E-15,  1.192E+02,  1.944E+01, 255
2019-003T09:41:00.228,   1, 180,   1,   600,   4,          0,     43.110,  99284.098,    92.460,   -23.324,     1.797,   132.859, 2, 5.486E-04, -1.00,   2,  2.162E-03,  3.868E-05,  3.261E-14,  6.200E-15,  9.415E+01,  1.790E+01, 255
2019-003T09:51:00.234,   1, 180,   1,   600,   4,          0,     43.110,  99284.098,    92.482,   -23.321,     1.796,   126.813, 2, 5.486E-04, -1.00,   2,  2.096E-03,  3.807E-05,  7.991E-14,  6.254E-15,  2.380E+02,  1.862E+01, 255
2019-003T10:01:00.241,   1, 180,   1,   600,   4,          0,     43.110,  99284.098,    92.503,   -23.318,     1.796,   120.767, 2, 5.486E-04, -1.00,   2,  1.935E-03,  3.733E-05,  3.122E-14,  6.156E-15,  1.007E+02,  1.986E+01, 255
2019-003T10:11:00.248,   1, 180,   1,   600,   4,          0,     43.110,  99284.098,    92.525,   -23.314,     1.796,   114.721, 2, 5.486E-04, -1.00,   2,  1.980E-03,  3.771E-05,  6.524E-14,  6.310E-15,  2.056E+02,  1.989E+01, 255
2019-003T10:21:00.255,   1, 180,   1,   600,   4,          0,     43.110,  99284.098,    92.547,   -23.311,     1.796,   108.674, 2, 5.486E-04, -1.00,   2,  2.162E-03,  3.854E-05,  3.948E-14,  6.118E-15,  1.140E+02,  1.766E+01, 255
2019-003T10:31:00.262,   1, 180,   1,   600,   4,          0,     43.110,  99284.098,    92.569,   -23.307,     1.796,   102.628, 2, 5.486E-04, -1.00,   2,  2.085E-03,  3.823E-05,  4.780E-14,  6.199E-15,  1.431E+02,  1.856E+01, 255
2019-003T10:41:00.269,   1, 180,   1,   600,   4,          0,     43.110,  99284.098,    92.590,   -23.304,     1.796,    96.582, 2, 5.486E-04, -1.00,   2,  2.051E-03,  3.876E-05,  1.221E-14,  6.259E-15,  3.716E+01,  1.905E+01, 255
2019-003T14:31:00.428,   1, 180,   1,   600,   4,          0,     43.110,  99284.098,    93.086,   -23.227,     1.794,   317.521, 2, 5.486E-04, -1.00,   2,  1.967E-03,  3.755E-05,  3.435E-14,  6.228E-15,  1.090E+02,  1.976E+01, 255
2019-003T14:41:00.435,   1, 180,   1,   600,   4,          0,     43.110,  99284.098,    93.107,   -23.224,     1.794,   311.475, 2, 5.486E-04, -1.00,   2,  2.248E-03,  3.936E-05,  5.338E-14,  6.155E-15,  1.482E+02,  1.709E+01, 255
2019-003T14:51:00.442,   1, 180,   1,   600,   4,          0,     43.110,  99284.098,    93.129,   -23.220,     1.794,   305.429, 2, 5.486E-04, -1.00,   2,  2.162E-03,  3.860E-05,  4.402E-14,  6.115E-15,  1.271E+02,  1.765E+01, 255
2019-003T15:01:00.449,   1, 180,   1,   600,   4,          0,     43.110,  99284.098,    93.150,   -23.217,     1.794,   299.382, 2, 5.486E-04, -1.00,   2,  2.171E-03,  3.886E-05,  3.493E-14,  6.198E-15,  1.004E+02,  1.782E+01, 255
2019-003T15:11:00.456,   1, 180,   1,   600,   4,          0,     43.110,  99284.098,    93.171,   -23.214,     1.794,   293.336, 2, 5.486E-04, -1.00,   2,  2.244E-03,  3.903E-05,  5.351E-14,  6.137E-15,  1.488E+02,  1.707E+01, 255
2019-003T15:21:00.463,   1, 180,   1,   600,   4,          0,     43.110,  99284.098,    93.193,   -23.210,     1.794,   287.290, 2, 5.486E-04, -1.00,   2,  2.050E-03,  3.820E-05,  2.794E-14,  6.305E-15,  8.507E+01,  1.920E+01, 255
2019-003T15:31:00.470,   1, 180,   1,   600,   4,          0,     43.110,  99284.098,    93.214,   -23.207,     1.794,   281.244, 2, 5.486E-04, -1.00,   2,  2.152E-03,  3.885E-05,  4.550E-14,  6.297E-15,  1.320E+02,  1.826E+01, 255
2019-003T15:41:00.477,   1, 180,   1,   600,   4,          0,     43.110,  99284.098,    93.235,   -23.204,     1.794,   275.198, 2, 5.486E-04, -1.00,   2,  2.034E-03,  3.800E-05,  6.323E-14,  6.350E-15,  1.941E+02,  1.949E+01, 255
2019-003T15:51:00.484,   1, 180,   1,   600,   4,          0,     43.110,  99284.098,    93.256,   -23.201,     1.794,   269.152, 2, 5.486E-04, -1.00,   2,  2.035E-03,  3.732E-05,  7.297E-14,  6.241E-15,  2.238E+02,  1.914E+01, 255
2019-003T16:01:00.491,   1, 180,   1,   600,   4,          0,     43.110,  99284.098,    93.278,   -23.197,     1.793,   263.106, 2, 5.486E-04, -1.00,   2,  2.065E-03,  3.794E-05,  1.395E-15,  6.017E-15,  4.219E+00,  1.819E+01, 255
2019-003T16:11:00.498,   1, 180,   1,   600,   4,          0,     43.110,  99284.098,    93.299,   -23.194,     1.793,   257.059, 2, 5.486E-04, -1.00,   2,  2.054E-03,  3.769E-05,  6.078E-14,  6.241E-15,  1.847E+02,  1.896E+01, 255
2019-003T16:21:00.505,   1, 180,   1,   600,   4,          0,     43.110,  99284.098,    93.320,   -23.191,     1.793,   251.013, 2, 5.486E-04, -1.00,   2,  2.151E-03,  3.859E-05,  5.959E-14,  6.301E-15,  1.730E+02,  1.829E+01, 255
2019-003T16:31:00.512,   1, 180,   1,   600,   4,          0,     43.110,  99284.098,    93.341,   -23.187,     1.793,   244.967, 2, 5.486E-04, -1.00,   2,  2.068E-03,  3.796E-05,  8.323E-14,  6.401E-15,  2.512E+02,  1.932E+01, 255
2019-003T16:41:00.519,   1, 180,   1,   600,   4,          0,     43.110,  99284.098,    93.363,   -23.184,     1.793,   238.921, 2, 5.486E-04, -1.00,   2,  1.977E-03,  3.802E-05,  3.234E-15,  6.202E-15,  1.021E+01,  1.958E+01, 255
2019-003T16:51:00.526,   1, 180,   1,   600,   4,          0,     43.110,  99284.098,    93.384,   -23.181,     1.793,   232.875, 2, 5.486E-04, -1.00,   2,  2.145E-03,  3.825E-05,  5.457E-14,  6.130E-15,  1.588E+02,  1.784E+01, 255
2019-003T17:01:00.533,   1, 180,   1,   600,   4,          0,     43.110,  99284.098,    93.405,   -23.177,     1.793,   226.829, 2, 5.486E-04, -1.00,   2,  2.085E-03,  3.819E-05,  3.105E-14,  6.144E-15,  9.296E+01,  1.839E+01, 255
2019-003T17:11:00.540,   1, 180,   1,   600,   4,          0,     43.110,  99284.098,    93.426,   -23.174,     1.793,   220.783, 2, 5.486E-04, -1.00,   2,  2.013E-03,  3.776E-05,  4.365E-14,  6.296E-15,  1.353E+02,  1.952E+01, 255
2019-003T17:21:00.547,   1, 180,   1,   600,   4,          0,     43.110,  99284.098,    93.447,   -23.171,     1.793,   214.737, 2, 5.486E-04, -1.00,   2,  2.031E-03,  3.761E-05,  4.388E-14,  6.228E-15,  1.348E+02,  1.914E+01, 255
2019-003T17:31:00.554,   1, 180,   1,   600,   4,          0,     43.110,  99284.098,    93.468,   -23.167,     1.793,   208.690, 2, 5.486E-04, -1.00,   2,  2.034E-03,  3.776E-05,  2.401E-14,  6.269E-15,  7.367E+01,  1.923E+01, 255
2019-003T17:41:00.561,   1, 180,   1,   600,   4,          0,     43.110,  99284.098,    93.489,   -23.164,     1.793,   202.644, 2, 5.486E-04, -1.00,   2,  2.125E-03,  3.800E-05,  7.519E-14,  6.264E-15,  2.209E+02,  1.840E+01, 255
2019-003T17:51:00.568,   1, 180,   1,   600,   4,          0,     43.110,  99284.098,    93.511,   -23.161,     1.793,   196.598, 2, 5.486E-04, -1.00,   2,  2.007E-03,  3.797E-05,  1.684E-14,  6.193E-15,  5.237E+01,  1.926E+01, 255
2019-003T18:01:00.575,   1, 180,   1,   600,   4,          0,     43.110,  99284.098,    93.532,   -23.158,     1.793,   190.552, 2, 5.486E-04, -1.00,   2,  2.082E-03,  3.799E-05,  4.378E-14,  6.183E-15,  1.312E+02,  1.853E+01, 255
2019-003T18:11:00.582,   1, 180,   1,   600,   4,          0,     43.110,  99284.098,    93.553,   -23.154,     1.793,   184.506, 2, 5.486E-04, -1.00,   2,  2.031E-03,  3.751E-05,  4.523E-14,  6.232E-15,  1.390E+02,  1.915E+01, 255
2019-003T18:21:00.589,   1, 180,   1,   600,   4,          0,     43.110,  99284.098,    93.574,   -23.151,     1.792,   178.460, 2, 5.486E-04, -1.00,   2,  2.058E-03,  3.757E-05,  7.780E-14,  6.285E-15,  2.359E+02,  1.906E+01, 255
2019-003T18:31:00.596,   1, 180,   1,   600,   4,          0,     43.110,  99284.098,    93.595,   -23.148,     1.792,   172.414, 2, 5.486E-04, -1.00,   2,  1.876E-03,  3.673E-05,  3.556E-14,  6.321E-15,  1.183E+02,  2.103E+01, 255
2019-003T18:41:00.603,   1, 180,   1,   600,   4,          0,     43.110,  99284.098,    93.616,   -23.144,     1.792,   166.367, 2, 5.486E-04, -1.00,   2,  1.910E-03,  3.693E-05,  3.553E-14,  6.235E-15,  1.161E+02,  2.037E+01, 255
2019-003T18:51:00.610,   1, 180,   1,   600,   4,          0,     43.110,  99284.098,    93.637,   -23.141,     1.792,   160.321, 2, 5.486E-04, -1.00,   2,  2.050E-03,  3.771E-05,  5.539E-14,  6.248E-15,  1.686E+02,  1.902E+01, 255
2019-003T19:01:00.617,   1, 180,   1,   600,   4,          0,     43.110,  99284.098,    93.658,   -23.138,     1.792,   154.275, 2, 5.486E-04, -1.00,   2,  2.141E-03,  3.918E-05,  4.905E-14,  6.364E-15,  1.430E+02,  1.855E+01, 255
2019-003T19:11:00.624,   1, 180,   1,   600,   4,          0,     43.110,  99284.098,    93.679,   -23.134,     1.792,   148.229, 2, 5.486E-04, -1.00,   2,  2.055E-03,  3.814E-05,  2.663E-14,  6.106E-15,  8.089E+01,  1.855E+01, 255
